Weather History for KHLN - January, 2014

Change the Weather History Date:

Friday, January 10, 2014

  Actual Average Record
Temperature  
Mean Temperature 35 °F 22 °F  
Max Temperature 45 °F 32 °F 56 °F (1990)
Min Temperature 25 °F 12 °F -30 °F (1909)
Degree Days  
Heating Degree Days 30 43  
Month to date heating degree days 395 434  
Since 1 July heating degree days 3453 3655  
Cooling Degree Days 0 0  
Month to date cooling degree days 0 0  
Year to date cooling degree days 0 0  
Moisture  
Dew Point 23 °F    
Average Humidity 64    
Maximum Humidity 85    
Minimum Humidity 43    
Precipitation  
Precipitation T in 0.01 in 0.31 in (2013)
Month to date precipitation 0.08 0.12  
Year to date precipitation 0.08 0.12  
Snow  
Snow T in 0.20 in 5.00 in (1913)
Month to date snowfall 0.6 2.0  
Since 1 July snowfall 5.3 18.1  
Snow Depth T in    
Sea Level Pressure  
Sea Level Pressure 29.80 in    
Wind  
Wind Speed 12 mph (West)    
Max Wind Speed 47 mph    
Max Gust Speed 58 mph    
Visibility 10 miles    
Events      
T = Trace of Precipitation, MM = Missing Value Source: NWS Daily Summary

Daily Weather History Graph

Daily Weather History Graph

Search for Another Location

Airport or City:

Trip Planner

Search our weather history database for the weather conditions in past years. The results will help you decide how hot, cold, wet, or windy it might be!

Date:

Astronomy

Jan. 10, 2014 Rise Set
Actual Time 8:10 AM MST 5:01 PM MST
Civil Twilight 7:36 AM MST 5:35 PM MST
Nautical Twilight 6:58 AM MST 6:13 PM MST
Astronomical Twilight 6:21 AM MST 6:49 PM MST
Moon 1:12 PM MST (1/10) 3:15 AM MST (1/10)
Length of Visible Light 9h 59m
Length of Day
8h 50m
Waxing Gibbous, 75% of the Moon is Illuminated
Jan 10
Waxing Gibbous
Jan 15
Full
Jan 23
Last Quarter
Jan 30
New
Feb 6
First Quarter

Hourly Weather History & Observations

Time (MST) Temp. Windchill Dew Point Humidity Pressure Visibility Wind Dir Wind Speed Gust Speed Precip Events Conditions
12:53 AM 32.0 °F 25.6 °F 16.0 °F 52% 29.75 in 10.0 mi South 6.9 mph - N/A   Overcast
1:53 AM 28.9 °F 25.2 °F 17.1 °F 61% 29.74 in 10.0 mi ENE 3.5 mph - N/A   Overcast
2:53 AM 30.0 °F 26.5 °F 17.1 °F 59% 29.74 in 10.0 mi WSW 3.5 mph - N/A   Overcast
3:53 AM 30.0 °F 26.5 °F 24.1 °F 79% 29.74 in 9.0 mi ENE 3.5 mph - N/A   Overcast
4:53 AM 27.0 °F 21.6 °F 23.0 °F 85% 29.74 in 10.0 mi West 4.6 mph - 0.00 in   Overcast
5:53 AM 27.0 °F 23.0 °F 23.0 °F 85% 29.75 in 10.0 mi ENE 3.5 mph - N/A   Mostly Cloudy
6:53 AM 28.9 °F 22.8 °F 24.1 °F 82% 29.75 in 10.0 mi SE 5.8 mph - N/A   Mostly Cloudy
7:53 AM 34.0 °F 28.0 °F 25.0 °F 70% 29.73 in 10.0 mi WSW 6.9 mph - N/A   Mostly Cloudy
8:53 AM 36.0 °F 25.6 °F 25.0 °F 64% 29.73 in 10.0 mi West 18.4 mph 28.8 mph N/A   Mostly Cloudy
9:53 AM 37.9 °F 28.9 °F 26.1 °F 62% 29.76 in 10.0 mi West 16.1 mph 24.2 mph N/A   Partly Cloudy
10:53 AM 39.0 °F 28.5 °F 26.1 °F 60% 29.75 in 10.0 mi WSW 23.0 mph 34.5 mph N/A   Scattered Clouds
11:53 AM 39.0 °F 28.8 °F 25.0 °F 57% 29.77 in 10.0 mi West 21.9 mph 34.5 mph N/A   Scattered Clouds
12:03 PM 39.2 °F 29.8 °F 24.8 °F 56% 29.68 in 10.0 mi West 18.4 mph 38.0 mph N/A   Mostly Cloudy
12:17 PM 39.2 °F 30.8 °F 24.8 °F 56% 29.68 in 10.0 mi West 15.0 mph 26.5 mph N/A   Overcast
12:53 PM 41.0 °F 35.2 °F 23.0 °F 49% 29.78 in 10.0 mi WSW 9.2 mph 20.7 mph N/A   Scattered Clouds
1:30 PM 41.0 °F 34.7 °F 21.2 °F 45% 29.67 in 10.0 mi West 10.4 mph 44.9 mph N/A   Squalls
1:53 PM 41.0 °F 31.9 °F 23.0 °F 49% 29.78 in 10.0 mi West 19.6 mph 31.1 mph N/A   Mostly Cloudy
2:53 PM 43.0 °F 34.2 °F 24.1 °F 47% 29.81 in 10.0 mi West 20.7 mph 27.6 mph N/A   Partly Cloudy
3:53 PM 42.1 °F 33.1 °F 21.9 °F 45% 29.84 in 10.0 mi West 20.7 mph 31.1 mph N/A   Overcast
4:53 PM 41.0 °F 31.6 °F 21.9 °F 47% 29.87 in 10.0 mi West 20.7 mph 36.8 mph N/A   Overcast
5:53 PM 41.0 °F 31.1 °F 21.9 °F 47% 29.88 in 10.0 mi WNW 23.0 mph 43.7 mph N/A   Clear
6:53 PM 41.0 °F 31.9 °F 21.9 °F 47% 29.92 in 10.0 mi West 19.6 mph 26.5 mph N/A   Scattered Clouds
7:53 PM 39.9 °F 33.9 °F 23.0 °F 51% 29.95 in 10.0 mi West 9.2 mph 16.1 mph N/A   Overcast
8:53 PM 39.9 °F 32.9 °F 23.0 °F 51% 29.96 in 10.0 mi West 11.5 mph - N/A   Overcast
9:53 PM 39.9 °F 33.4 °F 23.0 °F 51% 29.96 in 10.0 mi WNW 10.4 mph 17.3 mph N/A   Overcast
10:53 PM 39.9 °F 35.1 °F 23.0 °F 51% 29.95 in 10.0 mi WSW 6.9 mph - N/A   Partly Cloudy
11:53 PM 37.9 °F 35.5 °F 23.0 °F 55% 29.95 in 10.0 mi WSW 3.5 mph - N/A   Overcast